Location: Albany
(35.0170°S, 117.8920°E)
Time: 21:02:50
(UTC+08:00)

A-11 Canister half - Pass Details

Date: 27 January 2021
Orbit: 1525 x 1684 km, 47.3° (Epoch: 03 March)

Event Time Altitude Azimuth Distance (km) Brightness Sun altitude
Rises 04:43:58 0° 257° (WSW) 4,936 11.2 -7.9°
Reaches altitude 10° 04:47:29 10° 250° (WSW) 3,936 10.8 -7.3°
Maximum altitude 04:56:50 40° 182° (S) 2,258 10.2 -5.6°
Drops below altitude 10° 05:05:55 10° 114° (ESE) 3,826 13.1 -3.9°
Sets 05:09:17 0° 106° (ESE) 4,787 14.0 -3.3°
